Dewpoint
21 20 19 19 19 27 30 29 23 19 19 20 26 28 30 33 34 34 33 33 33 32 32 32 32 33 34 35 35 34 34 35 34 33 31 27 25 23 22 22 20 19 18 18
20 14 17 18 17 18 24 28 28 27 25 23 23 24 27 29 30 29 28 28 28 28 28 28 29 29 30 31 34 35 34 34 33 30 27 26 24 23 23 22 20 19 19 22
16 16 17 14 12 14 19 19 19 16 18 21 21 23 26 26 26 26 26 27 28 28 27 27 27 29 31 31 32 34 33 31 28 25 25 24 22 22 21 20 20 23 27 26
23 20 17 16 14 19 18 17 16 15 19 22 21 23 25 25 25 26 28 28 28 27 26 26 28 31 32 33 32 32 29 26 25 25 23 23 22 21 22 25 27 25 23 21
21 14 10 15 13 16 15 14 16 16 20 20 22 25 25 26 27 27 28 28 27 25 25 27 28 30 30 30 29 27 25 24 23 23 22 23 26 28 26 24 23 21 20 19
17 14 6 15 16 16 18 12 18 19 21 22 23 21 24 27 28 29 29 28 25 24 23 24 25 26 26 25 25 23 23 23 22 23 25 27 26 23 22 20 20 21 20 20
19 17 12 16 18 20 13 16 20 19 22 24 23 24 27 28 30 30 30 26 24 23 22 21 22 23 23 22 22 22 23 25 27 27 24 22 21 20 19 18 20 20 20 20
16 16 19 20 21 17 19 22 22 21 25 25 26 26 27 29 30 30 28 25 23 22 22 22 23 23 21 20 21 23 26 27 24 21 18 16 18 18 18 18 19 19 19 19
17 17 23 23 21 23 24 24 24 25 27 27 27 28 29 31 30 29 27 24 22 22 20 18 19 18 16 17 20 23 23 20 17 18 18 18 18 19 20 21 21 20 21 22
20 21 22 23 25 24 23 24 26 26 26 28 27 29 30 31 30 29 27 23 22 20 17 15 14 14 16 22 23 20 16 15 16 17 19 18 21 22 22 22 22 22 23 24
20 21 21 23 24 25 25 26 26 27 27 27 28 29 30 30 30 29 28 24 22 20 17 12 13 18 23 21 17 14 14 16 17 20 19 19 21 22 23 23 25 25 26 25
20 20 21 23 24 26 27 26 27 27 28 28 28 30 30 30 30 29 27 24 22 21 15 16 21 22 19 17 15 14 14 18 21 21 21 22 22 23 28 27 28 28 28 27
24 28 27 28 27 29 28 29 29 28 29 29 29 30 31 30 30 31 27 23 22 20 18 21 22 20 19 19 18 18 18 20 22 23 21 22 23 24 24 25 27 26 26 26
29 29 28 28 28 30 30 30 31 30 29 30 30 30 31 30 31 29 25 24 22 17 17 22 21 18 18 20 21 20 21 24 22 23 23 24 24 25 24 24 23 23 25 25
29 28 28 29 29 30 30 30 29 29 29 29 30 30 30 29 30 27 24 21 18 19 22 21 18 16 18 20 22 21 21 23 23 24 25 25 25 24 24 24 22 21 23 22
28 28 28 29 29 30 29 29 29 28 28 28 29 29 28 29 27 22 19 18 20 21 22 18 18 17 20 21 23 23 23 25 26 25 24 25 25 24 24 23 24 22 20 19
31 31 30 31 30 29 30 29 29 29 28 27 27 27 26 23 21 19 19 20 22 22 21 21 21 22 24 25 24 24 24 24 25 25 25 25 25 24 23 24 23 22 20 21
28 29 29 29 30 30 30 30 30 30 30 28 27 25 24 24 22 21 21 20 19 18 22 22 22 24 24 26 26 25 25 25 26 26 25 25 24 26 26 22 21 22 22 22
26 27 28 26 26 28 29 31 31 30 29 28 28 27 25 25 23 22 21 20 19 17 15 19 26 26 26 27 27 27 27 26 27 26 26 25 23 23 24 22 22 22 22 22
24 26 26 24 24 24 24 24 24 23 22 23 23 22 21 21 21 20 20 19 18 16 16 19 25 26 27 27 28 29 28 27 26 25 24 23 23 23 23 23 23 23 22 21
26 25 25 25 23 23 22 21 21 20 21 21 21 20 20 19 18 19 19 17 18 18 18 23 24 26 27 27 28 28 28 27 26 25 24 23 23 22 20 22 23 22 22 21
25 26 25 25 22 20 20 22 21 20 19 19 19 19 18 16 16 18 18 21 21 23 22 23 25 27 28 28 29 28 27 26 26 25 25 23 23 22 21 22 23 21 20 21
23 24 25 25 22 20 20 20 19 19 20 20 21 20 21 21 22 24 23 23 24 23 26 27 27 27 28 30 28 27 26 26 25 24 24 23 24 23 24 24 23 22 21 21
23 22 23 22 23 24 24 20 21 19 21 20 23 24 25 26 26 26 26 24 24 26 27 28 28 28 29 28 28 28 27 26 26 25 25 23 23 24 24 22 22 21 21 21
23 23 23 24 23 21 22 21 21 21 20 21 22 23 25 25 27 27 26 25 24 26 27 27 28 29 28 27 26 26 27 27 26 26 25 24 24 24 23 22 22 21 20 21
20 20 20 21 21 20 19 20 21 21 21 20 20 21 23 24 24 24 25 25 25 25 26 27 27 28 27 27 26 26 26 26 24 24 24 23 22 22 21 20 21 20 20 20
24 25 25 23 22 21 22 23 23 22 22 21 21 22 23 24 25 25 25 26 26 26 25 25 25 24 24 24 24 24 23 24 24 24 23 22 22 22 22 20 20 20 18 18
Lifted_Index
3 3 3 3 2 2 1 1 1 1 1 2 2 1 1 2 2 2 2 3 4 5 7 7 8 8 9 9 10 10 11 11 11 12 12 12 13 13 14 15 16 16 16 17
2 3 3 3 3 3 2 2 2 1 2 2 2 2 2 2 3 3 4 5 6 6 7 8 8 9 9 10 10 11 11 11 12 12 12 12 13 14 14 15 16 16 17 17
2 3 2 2 3 3 4 4 3 3 3 3 3 3 3 4 5 5 5 6 7 8 8 8 9 10 10 11 11 12 12 12 12 12 12 13 13 14 14 15 16 16 17 17
2 2 2 3 4 4 4 4 4 4 4 4 4 4 5 6 6 6 7 7 8 8 9 9 10 11 11 11 12 12 12 12 12 12 13 13 14 14 15 16 16 16 17 17
2 2 2 3 4 5 4 4 5 5 5 5 5 6 6 6 7 7 8 8 9 9 10 10 11 11 12 12 12 12 12 12 13 13 13 14 14 15 16 16 16 17 17 17
2 2 3 4 5 5 5 4 5 6 6 6 6 6 6 7 8 8 9 9 10 10 11 11 12 12 12 12 12 13 13 13 14 14 14 15 15 16 16 17 17 18 18 18
3 2 3 5 5 5 5 5 6 6 7 7 6 6 7 7 8 9 9 9 10 11 11 12 12 13 13 13 13 14 14 14 15 15 15 16 16 17 17 18 18 18 18 18
3 3 4 5 6 6 6 6 7 7 7 7 7 7 7 8 8 9 9 10 10 11 12 12 13 13 13 13 14 14 15 15 15 15 16 16 17 18 18 18 18 18 17 17
3 3 5 6 6 7 7 7 7 7 7 8 8 8 8 8 9 9 10 10 11 11 12 12 13 13 13 14 14 15 15 15 15 16 17 18 18 18 18 18 17 17 17 16
3 4 5 6 7 7 7 7 7 7 8 8 8 8 9 9 9 10 10 10 11 11 11 12 13 13 14 14 14 14 14 15 15 17 18 18 18 18 18 17 17 17 16 15
3 4 5 6 7 7 7 7 7 7 8 8 8 8 9 9 9 10 10 10 10 11 11 12 12 13 14 14 14 14 14 15 16 17 18 18 18 18 18 17 17 16 15 15
4 5 6 6 7 7 7 7 7 7 8 8 8 9 9 9 9 9 9 10 10 10 11 11 12 13 13 14 14 14 15 16 17 18 18 18 18 17 17 17 16 15 15 14
5 6 6 7 7 7 7 7 8 8 8 8 8 9 9 9 9 9 9 9 10 10 11 11 12 12 13 14 15 15 16 17 17 18 18 18 17 17 16 15 14 14 14 14
6 7 7 7 7 8 8 8 8 8 8 8 8 8 9 9 9 9 9 10 10 10 11 11 12 13 13 14 15 16 17 17 18 18 18 17 17 16 15 14 13 13 13 13
6 7 7 7 8 8 8 8 8 8 8 8 8 8 8 9 9 9 9 10 10 10 11 11 12 13 14 15 16 17 17 17 17 17 17 16 16 15 14 13 12 12 12 13
6 6 7 7 7 8 8 9 9 9 9 9 8 8 8 8 9 9 9 10 10 11 11 12 12 13 14 15 16 17 17 17 17 17 16 15 14 13 13 12 11 11 12 12
6 6 6 7 7 8 9 9 9 9 9 9 8 8 8 8 8 9 10 10 11 11 12 12 13 14 15 16 17 17 17 17 16 15 15 14 13 12 12 11 11 11 11 11
7 7 7 7 8 8 9 9 9 9 9 8 8 8 8 8 9 9 10 10 11 11 12 13 14 15 16 16 17 17 16 16 15 14 14 13 12 12 11 11 10 10 11 11
8 8 8 9 9 9 9 9 9 8 8 8 8 8 8 9 9 10 10 11 11 12 13 14 15 16 16 16 16 16 15 15 14 13 13 12 11 11 10 10 10 10 11 11
9 9 9 9 9 9 9 9 8 8 8 8 8 8 9 9 10 10 11 11 12 13 14 15 15 16 16 16 15 15 15 14 13 13 12 11 11 10 10 10 10 10 11 11
9 9 9 9 9 9 9 9 9 9 9 9 9 9 9 10 11 11 12 13 13 14 14 15 15 15 15 15 15 14 14 13 13 12 11 11 10 9 9 9 10 10 11 11
10 10 10 10 10 10 10 10 10 10 9 9 10 10 10 11 12 13 13 13 14 14 14 15 15 15 15 14 14 13 13 12 12 11 11 10 9 9 9 9 10 10 10 10
11 11 11 11 11 11 11 11 11 10 10 11 11 12 12 13 14 14 14 14 14 14 14 15 15 14 14 13 13 13 12 12 11 10 10 9 9 9 9 9 10 10 10 10
11 12 12 11 11 11 11 11 11 11 12 12 13 14 14 14 14 14 13 14 14 14 14 14 14 14 13 13 12 12 11 11 10 9 9 9 9 9 9 10 10 10 10 10
12 12 12 11 11 11 11 11 11 12 12 13 14 14 14 14 14 13 13 14 14 14 14 14 13 13 12 12 11 11 10 10 9 9 9 9 9 9 9 10 10 10 10 11
12 12 11 11 11 11 12 12 12 12 13 13 14 14 14 13 13 13 13 13 14 14 13 13 12 12 11 11 10 10 10 9 9 9 9 9 9 10 10 10 10 10 11 11
11 11 11 11 11 12 12 12 12 13 13 13 13 13 13 13 13 13 13 14 13 13 12 12 11 11 11 10 10 10 9 9 9 10 10 10 10 10 10 10 10 11 11 11